Location: Allie Creek
(37.5926°N, 89.8526°W)
Time: 22:24:15
(UTC+00:00)

SL-16 R/B - Pass Details

Date: 02 May 2024
Orbit: 841 x 845 km, 71.0° (Epoch: 28 May)

Event Time Altitude Azimuth Distance (km) Brightness Sun altitude
Rises 01:08:27 0° 157° (SSE) 3,383 4.9 -4.2°
Reaches altitude 10° 01:11:43 10° 138° (SE) 2,454 4.1 -4.8°
Maximum altitude 01:15:13 17° 99° (E) 2,004 3.6 -5.4°
Drops below altitude 10° 01:18:45 10° 60° (ENE) 2,466 4.3 -6.1°
Sets 01:22:01 0° 41° (NE) 3,407 5.2 -6.6°
